map of EAS home
EAS - Airport
Location
City:  San Sebastián, Basque Country, Spain
Near (Alt.):Hondarribia
Name:San Sebastián Airport
Old (Alt.):Fuenterrabia Airport
ICAO:LESO
IATA:EAS

Details
Type:Airport (Aerodrome, Airfield)
Use:Public/Civil
Latitude:43°21'23"N (43.356519)
Longitude:1°47'26"W (-1.790610)
Datum:WGS 1984
Elevation:15 ft (5 m)
Variation:0.01°E (WMM2015v2 magnetic declination)
0.16° annual change
Runways:1
Longest:5755 × 148 ft (1754 × 45 m), paved

Time
Time Zone:UTC+1 (DST+2)
Local Time:

Weather
METAR:LESO 041400Z 00000KT 9999 FEW044 BKN048 12/04 Q1027
TAF:LESO 041100Z 0412/0512 VRB04KT 9999 SCT010 BKN050 TX11/0512Z TN07/0507Z
TEMPO 0415/0512 3000 RADZ BKN010

Related Locations
Nearby:
Farthest:NZFT: 12248 mi / 19711 km
Flat Point, WGN, NZ

Find:

   beyond  
but within

Other Information
Maps:
NOTAMs:
Links:
Sources:

  
  • flag of Spain
  • flag of Basque Country
  

Sectional Chart

Flight Planning
at skyvector.com

Satellite Image

Google Maps Satellite view

 

Copyright © 2004-2019 Karl L. Swartz. All rights reserved.
The Great Circle Mapper name and logo are trademarks of the Great Circle Mapper.
All other trademarks mentioned herein belong to their respective owners.
Please see credits for attibutions and further copyright information.

  Follow gcmap on Facebook Follow gcmap on Twitter GCmap on LinkedIn

hCard Microformat

Geo Microformat